YAOGAN-30 U (46807 NORAD) Tracking and Keplerian Element Data

This shows tracking and keplerian element data for the satellite.

Feedback or suggestion? Click here.




ElementValue
Catalog46807
NameYAOGAN-30 U
Epoch Orbit408
Epoch Day328.05748218
Epoch Year2020
RAAN77.4348
Inclination34.9963
Eccentricity2.7E-05
Argument of Perigee272.6816
Mean Anonmoly87.3862
Mean Motion14.89809714
Decay Rate2.14E-06
L11 46807U 20076A 20328.05748218 .00000214 00000-0 24636-4 0 9992
L22 46807 34.9963 77.4348 0000270 272.6816 87.3862 14.89809714 4082

Live tracking and technical data element details for YAOGAN-30 U (NORAD 46807). YAOGAN-30 U can be tracked NOW for your location showing map with azimuth and elevation plus other details from your city location.

Track the satellite on the map from your city or location and see movement details for azimuth, elevation, latitude, longitude, range, height, and movement on the map or in text.







IsCatalogInMostPopularTable: catalog: 46807, numindb: 7
Update: records affected: 1



GetName: 46807 YAOGAN-30 U

Hit Count: updated at: Tue, 24 Nov 2020 11:20:45 GMT